Home > Weather > Nagano > Past weeks

Flag for Japan Past Weather in Nagano, Japan — Yesterday and Last 2 Weeks

Now
82 °F

Scattered clouds.


Feels Like: 84 °F
Forecast: 69 / 87 °F
Wind: 5 mph from South

Location: Nagano

Current Time: Jul 31, 2016 at 9:50:32 AM

Latest Report: Jul 31, 2016 at 9:00 AM


Visibility: 6 mi

Pressure: 29.89 "Hg

Humidity: 60%

Dew Point: 66 °F

Location of NaganoLocation

Past Weather in Nagano — Graph

°F

Nagano Temperature Yesterday

Maximum temperature yesterday: 89 °F (at 1:00 PM)
Minimum temperature yesterday: 76 °F (at 4:00 AM)
Average temperature yesterday: 81 °F

High & Low Weather Summary for the Past Weeks

 TemperatureHumidityPressure
High92 °F (Jul 29, 2:00 PM)100% (Jul 27, 3:00 AM)29.96 "Hg (Jul 27, 3:00 AM)
Low68 °F (Jul 19, 5:00 AM)42% (Jul 24, 1:00 PM)29.62 "Hg (Jul 17, 3:00 PM)
Average77 °F71%29.83 "Hg
* Reported Jul 16 8:00 AM — Jul 31 8:00 AM, Nagano, Weather by CustomWeather, © 2016

Note: Actual official high and low records may vary slightly from our data, if they occured in-between our weather recording intervals... More about our weather records

Advertising

Nagano Weather History for the Previous 24 Hours

Scroll right to see more
 ConditionsComfort  
Time TempWeatherWind HumidityBarometerVisibility
8:00 AM
Sun, Jul 31
78 °FWarm.5 mph68%29.91 "HgN/A
7:00 AM77 °FMild.6 mph72%29.92 "HgN/A
6:00 AM75 °FMild.7 mph77%29.93 "HgN/A
5:00 AM75 °FMild.6 mph75%29.91 "HgN/A
4:00 AM75 °FMild.6 mph76%29.90 "HgN/A
3:00 AM76 °FPassing clouds.6 mph74%29.89 "Hg9 mi
2:00 AM77 °FMild.8 mph71%29.89 "HgN/A
1:00 AM78 °FWarm.9 mph69%29.89 "HgN/A
12:00 AM78 °FWarm.7 mph67%29.89 "HgN/A
11:00 PM
Sat, Jul 30
77 °FWarm.5 mph77%29.90 "HgN/A
10:00 PM77 °FMild.5 mph82%29.90 "HgN/A
9:00 PM78 °FOvercast.3 mph78%29.91 "Hg6 mi
8:00 PM80 °FWarm.5 mph77%29.89 "HgN/A
7:00 PM82 °FWarm.3 mph67%29.87 "HgN/A
6:00 PM82 °FWarm.8 mph68%29.86 "HgN/A
5:00 PM84 °FWarm.8 mph63%29.85 "HgN/A
4:00 PM88 °FWarm.9 mph58%29.83 "HgN/A
3:00 PM87 °FOvercast.12 mph58%29.83 "Hg12 mi
2:00 PM88 °FWarm.14 mph56%29.85 "HgN/A
1:00 PM89 °FHot.9 mph53%29.85 "HgN/A
12:00 PM87 °FWarm.2 mph50%29.87 "HgN/A
11:00 AM85 °FWarm.5 mph51%29.90 "HgN/A
10:00 AM82 °FWarm.5 mph57%29.92 "HgN/A
9:00 AM81 °FOvercast.3 mph57%29.92 "Hg12 mi
Weather by CustomWeather, © 2016

See weather overviewHow to use our weather pages